DW7214 Weather Reports


time (UTC)temp
F
wind
direction
speed
knots
gust
knots
rain 1hr
in
rain 24hr
in
rain mn
in
humidity
%
barometer
mb
20260505214506 64 49 0.9 3.5 0.00 0.00 0.00 70 1017.1
20260505213008 63 57 0.9 3.5 0.00 0.00 0.00 69 1017.2
20260505211508 63 351 0.9 3.5 0.00 0.00 0.00 71 1017.3
20260505210007 63 65 0.9 2.6 0.00 0.00 0.00 69 1017.3
20260505204509 63 298 1.7 3.5 0.00 0.00 0.00 69 1017.4
20260505203008 62 49 0.9 3.5 0.00 0.00 0.00 70 1017.5
20260505201507 61 184 0.9 1.7 0.00 0.00 0.00 70 1017.6
20260505200015 61 329 0.9 1.7 0.00 0.00 0.00 71 1017.6
20260505194510 60 207 0.9 2.6 0.00 0.00 0.00 75 1017.7
20260505193010 59 63 0.9 2.6 0.00 0.00 0.00 74 1017.8
20260505191511 59 5 0.9 2.6 0.00 0.00 0.00 75 1017.8
20260505190012 58 234 0.9 2.6 0.00 0.00 0.00 76 1017.8
20260505184510 58 5 1.7 3.5 0.00 0.00 0.00 77 1017.7
20260505183019 58 287 0.9 3.5 0.00 0.00 0.00 77 1017.5
20260505181514 58 242 0.9 3.5 0.00 0.00 0.00 76 1017.5
20260505180012 58 344 0.9 2.6 0.00 0.00 0.00 76 1017.4
20260505174512 58 234 0.9 1.7 0.00 0.00 0.00 78 1017.4
20260505173014 57 340 0.0 1.7 0.00 0.00 0.00 78 1017.4
20260505171518 57 205 0.9 3.5 0.00 0.00 0.00 78 1017.3
20260505170017 57 232 0.0 1.7 0.00 0.00 0.00 79 1017.3
20260505164513 57 235 0.9 2.6 0.00 0.00 0.00 80 1017.1
20260505163014 56 221 1.7 2.6 0.00 0.00 0.00 79 1017.0
20260505161516 55 217 0.0 1.7 0.00 0.00 0.00 87 1017.1
20260505153006 53 117 0.9 1.7 0.00 0.00 0.00 89 1017.0
20260505151509 52 131 0.0 0.9 0.00 0.00 0.00 91 1017.0
20260505124516 49 237 0.0 1.7 0.00 0.00 0.00 94 1016.0
20260505123021 49 237 0.0 1.7 0.00 0.00 0.00 94 1015.9
20260505121522 49 237 0.0 1.7 0.00 0.00 0.00 94 1016.1
20260505120007 48 242 0.0 2.6 0.00 0.00 0.00 94 1016.0
20260505114514 48 225 0.0 1.7 0.00 0.00 0.00 95 1016.0
20260505113015 47 248 0.0 1.7 0.00 0.00 0.00 95 1016.0
20260505111532 46 244 0.0 1.7 0.00 0.00 0.00 95 1016.0
20260505101521 46 269 0.0 1.7 0.00 0.00 0.00 93 1015.3
20260505100028 46 269 0.0 0.0 0.00 0.00 0.00 92 1015.3
20260505094522 46 269 0.0 0.0 0.00 0.00 0.00 92 1015.3
20260505093012 47 269 0.0 1.7 0.00 0.00 0.00 92 1015.2
20260505091518 47 269 0.0 1.7 0.00 0.00 0.00 91 1015.2
20260505090024 47 269 0.0 1.7 0.00 0.00 0.00 92 1015.0
20260505084526 48 269 0.0 0.0 0.00 0.00 0.00 91 1015.0
20260505083024 48 269 0.0 1.7 0.00 0.00 0.00 91 1014.8
20260505081514 49 269 0.0 1.7 0.00 0.00 0.00 91 1014.6
20260505080020 49 173 0.0 1.7 0.00 0.00 0.00 90 1014.5
20260505074523 50 173 0.0 1.7 0.00 0.00 0.00 90 1014.3
20260505073041 50 156 0.0 1.7 0.00 0.00 0.00 89 1014.3
20260505071543 51 199 0.0 1.7 0.00 0.00 0.00 89 1014.1
20260505070018 51 149 0.9 1.7 0.00 0.00 0.00 89 1013.9
20260505064525 51 150 0.0 1.7 0.00 0.00 0.00 88 1013.9
20260505063026 52 143 0.0 5.2 0.00 0.00 0.00 87 1013.7
20260505061511 52 101 0.9 5.2 0.00 0.00 0.00 87 1013.7
20260505060015 52 159 1.7 3.5 0.00 0.00 0.00 87 1013.8
20260505054532 53 50 0.0 1.7 0.00 0.00 0.00 86 1013.7
20260505053034 54 130 0.0 5.2 0.00 0.00 0.00 85 1013.5
20260505051509 54 113 1.7 6.1 0.00 0.00 0.00 84 1013.4
20260505041526 57 58 0.0 1.7 0.00 0.00 0.00 80 1012.6
20260505040008 58 70 0.0 3.5 0.00 0.00 0.00 78 1012.2
20260505034515 59 83 0.0 2.6 0.00 0.00 0.00 77 1012.0
20260505033025 60 74 0.0 2.6 0.00 0.00 0.00 75 1011.8
20260505031522 61 60 0.9 1.7 0.00 0.00 0.00 74 1011.6
20260505030028 63 60 0.9 2.6 0.00 0.00 0.00 71 1011.4
20260505024512 65 129 0.9 5.2 0.00 0.00 0.00 68 1011.2
20260505023019 66 159 2.6 7.8 0.00 0.00 0.00 66 1011.2
20260505021525 68 146 0.9 8.7 0.00 0.00 0.00 64 1010.9
20260505020025 68 148 1.7 8.7 0.00 0.00 0.00 63 1010.9
20260505014508 70 130 2.6 7.8 0.00 0.00 0.00 61 1011.0
20260505013014 71 116 1.7 6.1 0.00 0.00 0.00 61 1011.0
20260505011522 71 135 3.5 10.4 0.00 0.00 0.00 60 1011.1
20260505010024 72 121 3.5 8.7 0.00 0.00 0.00 58 1011.1
20260505004526 73 114 1.7 6.1 0.00 0.00 0.00 58 1011.2
20260505003015 73 55 3.5 7.8 0.00 0.00 0.00 59 1011.3
20260505001521 73 150 3.5 9.6 0.00 0.00 0.00 57 1011.3
20260505000023 74 157 2.6 6.1 0.00 0.00 0.00 59 1011.5
20260504234525 73 147 1.7 9.6 0.00 0.00 0.00 61 1011.6
20260504233028 74 119 1.7 7.0 0.00 0.00 0.00 58 1011.7
20260504231517 74 57 1.7 9.6 0.00 0.00 0.00 60 1011.9
20260504230027 73 80 0.9 9.6 0.00 0.00 0.00 61 1011.9
20260504224526 72 142 1.7 7.0 0.00 0.00 0.00 64 1012.1
20260504223028 72 159 1.7 5.2 0.00 0.00 0.00 65 1012.3
20260504221522 72 55 2.6 5.2 0.00 0.00 0.00 65 1012.5
20260504220023 71 140 1.7 8.7 0.00 0.00 0.00 65 1012.7